Simultaneous Nadir Overpasses (SNOs) Predictions

Prediction of SNOs between TERRA and METOP-C Satellite Orbit:

Table of predicted SNOs for the next 14.0 days since TLE Epoch: 5/21/2021
Index Date (TERRA) Time (TERRA) Lat,Lon (TERRA) SZA (TERRA ) Date (METOP-C) Time (METOP-C) Lat,Lon (METOP-C) SZA (METOP-C ) Distance(km) Time Diff (sec)
1 05/23/2021 17:15:13 81.30, -32.74 63.45 05/23/2021 17:14:48 81.29, -32.84 63.43 1.70 25
2 05/23/2021 18:04:40 -81.29, 134.80 116.57 05/23/2021 18:05:28 -81.30, 134.84 116.54 1.01 48
3 05/26/2021 12:49:25 81.29, 33.64 62.93 05/26/2021 12:49:10 81.29, 33.47 62.91 2.79 15
4 05/26/2021 13:38:51 -81.31,-158.42 117.03 05/26/2021 13:39:49 -81.30,-158.39 117.00 0.87 58
5 05/29/2021 08:23:37 81.29, 99.97 62.46 05/29/2021 08:23:31 81.30, 100.16 62.48 3.24 6
6 05/29/2021 09:13:03 -81.31, -92.05 117.50 05/29/2021 09:14:11 -81.30, -92.02 117.47 0.65 68
7 06/01/2021 03:08:22 -81.28, -1.37 117.98 06/01/2021 03:07:13 -81.29, -1.32 118.00 1.14 69
8 06/01/2021 03:57:47 81.30, 166.65 62.08 06/01/2021 03:57:51 81.30, 166.83 62.10 3.11 4
9 06/03/2021 22:42:33 -81.29, 65.29 118.31 06/03/2021 22:41:34 -81.29, 65.41 118.32 2.06 59



Historial Predications of SNOs between TERRA and METOP-C
